sat.trackr.live / text

‹ back to catalog

STARLINK-4695

NORAD 53718 · 2022-107U

PAYLOAD ACTIVE UNKNOWN

§ Identity

Operator
Country
US
Launch date
2022-09-05
Launch site
AFETR
Launch vehicle
Mass (kg)
RCS (m²)

Purposes: comms

External: N2YO · Heavens-Above · Gunter

§ Orbital elements

Epoch: 2026-05-24T15:03:14.737824Z

Period
95.44 min
Inclination
53.2160°
Eccentricity
0.0001231
Mean motion
15.08840277 rev/d
Perigee alt
538.9 km
Apogee alt
540.6 km
Semi-major
6,917.9 km
B*
1.8695e-5
RAAN
273.4869°
Arg perigee
87.7106°
Mean anomaly
272.4027°
Rev number
20,586

§ Raw data

STARLINK-46951 53718U 22107U   26144.62725391  .00000010  00000+0  18695-4 0  99912 53718  53.2160 273.4869 0001231  87.7106 272.4027 15.08840277205865

JSON: /api/v1/satellites/53718 · /tle

For live sub-satellite position, see the globe view (requires WebGL).

§ Visibility from observer

Set your observer location to see the next 7 days of passes ≥ 10°. The values pass through the URL so the page stays shareable.

No JS? Fill the form by hand. The geolocation button needs JavaScript.